When you browse on this site, cookies collect data to enhance your experience and personalize the content and advertising you see.
Visit our Privacy Policy to learn more. By continuing to use the site, you agree to this use of cookies and data.
  • en France
  • Liste des pays
  • À 7 jours
  • Température de l'eau
  • Carte météo
  • Widgets météo
  • user-avatar
    Se connecter

    Météo par heure à Sozopol

    Ce jour, 16 Septembre, Lundi

    Heure Température Précipitation Vent Pression Humidité
    00:00 +15°C° 0 mm 1 m/s 762 mmHg 83%
    01:00 +15°C° 0 mm 1 m/s 762 mmHg 84%
    02:00 +15°C° 0 mm 1 m/s 762 mmHg 85%
    03:00 +14°C° 0 mm 2 m/s 762 mmHg 85%
    04:00 +14°C° 0 mm 2 m/s 761 mmHg 86%
    05:00 +14°C° 0 mm 2 m/s 761 mmHg 87%
    06:00 +16°C° 0 mm 2 m/s 761 mmHg 78%
    07:00 +18°C° 0 mm 2 m/s 761 mmHg 70%
    08:00 +20°C° 0 mm 2 m/s 761 mmHg 61%
    09:00 +23°C° 0 mm 2 m/s 760 mmHg 52%
    10:00 +25°C° 0 mm 1 m/s 760 mmHg 43%
    11:00 +27°C° 0 mm 1 m/s 760 mmHg 35%
    12:00 +28°C° 0 mm 2 m/s 759 mmHg 33%
    13:00 +28°C° 0 mm 2 m/s 759 mmHg 32%
    14:00 +29°C° 0 mm 3 m/s 758 mmHg 31%
    15:00 +28°C° 0 mm 3 m/s 758 mmHg 34%
    16:00 +27°C° 0 mm 4 m/s 758 mmHg 37%
    17:00 +26°C° 0 mm 4 m/s 757 mmHg 40%
    18:00 +23°C° 0 mm 4 m/s 757 mmHg 46%
    19:00 +21°C° 0 mm 3 m/s 757 mmHg 52%
    20:00 +18°C° 0 mm 3 m/s 758 mmHg 59%
    21:00 +18°C° 0 mm 3 m/s 757 mmHg 58%
    22:00 +18°C° 0 mm 2 m/s 757 mmHg 57%
    23:00 +18°C° 0 mm 2 m/s 757 mmHg 56%

    Demain, 17 Septembre, Mardi

    Heure Température Précipitation Vent Pression Humidité
    00:00 +17°C° 0 mm 2 m/s 757 mmHg 56%
    01:00 +17°C° 0 mm 2 m/s 757 mmHg 55%
    02:00 +17°C° 0 mm 3 m/s 757 mmHg 54%
    03:00 +17°C° 0 mm 3 m/s 757 mmHg 53%
    04:00 +17°C° 0 mm 3 m/s 757 mmHg 51%
    05:00 +17°C° 0 mm 3 m/s 756 mmHg 50%
    06:00 +19°C° 0 mm 3 m/s 757 mmHg 45%
    07:00 +21°C° 0 mm 3 m/s 757 mmHg 40%
    08:00 +25°C° 0 mm 3 m/s 757 mmHg 35%
    09:00 +27°C° 0 mm 3 m/s 757 mmHg 31%
    10:00 +30°C° 0 mm 3 m/s 757 mmHg 26%
    11:00 +34°C° 0 mm 3 m/s 757 mmHg 21%
    12:00 +34°C° 0 mm 3 m/s 756 mmHg 21%
    13:00 +35°C° 0 mm 4 m/s 756 mmHg 20%
    14:00 +35°C° 0 mm 4 m/s 755 mmHg 19%
    15:00 +35°C° 0 mm 4 m/s 755 mmHg 21%
    16:00 +34°C° 0 mm 4 m/s 754 mmHg 22%
    17:00 +33°C° 0 mm 4 m/s 754 mmHg 24%
    18:00 +30°C° 0 mm 4 m/s 754 mmHg 28%
    19:00 +27°C° 0 mm 4 m/s 755 mmHg 33%
    20:00 +24°C° 0 mm 3 m/s 755 mmHg 37%
    21:00 +24°C° 0 mm 3 m/s 755 mmHg 37%
    22:00 +24°C° 0 mm 3 m/s 755 mmHg 37%
    23:00 +23°C° 0 mm 4 m/s 755 mmHg 37%

    Après-demain, 18 Septembre, Mercredi

    Heure Température Précipitation Vent Pression Humidité
    00:00 +24°C° 0 mm 3 m/s 755 mmHg 38%
    01:00 +24°C° 0 mm 3 m/s 754 mmHg 39%
    02:00 +24°C° 0 mm 3 m/s 754 mmHg 39%
    03:00 +24°C° 0 mm 3 m/s 754 mmHg 41%
    04:00 +22°C° 0 mm 3 m/s 754 mmHg 44%
    05:00 +21°C° 0 mm 3 m/s 754 mmHg 46%
    06:00 +24°C° 0 mm 3 m/s 754 mmHg 43%
    07:00 +26°C° 0 mm 4 m/s 755 mmHg 40%
    08:00 +27°C° 0 mm 4 m/s 755 mmHg 37%
    09:00 +29°C° 0 mm 4 m/s 755 mmHg 32%
    10:00 +33°C° 0 mm 4 m/s 755 mmHg 28%
    11:00 +35°C° 0 mm 3 m/s 755 mmHg 23%
    12:00 +35°C° 0 mm 4 m/s 755 mmHg 23%
    13:00 +35°C° 0 mm 5 m/s 755 mmHg 23%
    14:00 +35°C° 0 mm 5 m/s 755 mmHg 22%
    15:00 +32°C° 0 mm 7 m/s 756 mmHg 36%
    16:00 +28°C° 0 mm 8 m/s 756 mmHg 49%
    17:00 +24°C° 0 mm 9 m/s 757 mmHg 63%
    18:00 +23°C° 0 mm 8 m/s 758 mmHg 64%
    19:00 +22°C° 0 mm 8 m/s 759 mmHg 65%
    20:00 +20°C° 0 mm 7 m/s 759 mmHg 66%
    21:00 +20°C° 0 mm 7 m/s 760 mmHg 70%
    22:00 +19°C° 0 mm 6 m/s 760 mmHg 75%
    23:00 +19°C° 0 mm 6 m/s 760 mmHg 79%

    19 Septembre, Jeudi

    Heure Température Précipitation Vent Pression Humidité
    00:00 +19°C° 0 mm 5 m/s 761 mmHg 78%
    01:00 +18°C° 0 mm 4 m/s 761 mmHg 78%
    02:00 +18°C° 0 mm 4 m/s 761 mmHg 77%
    03:00 +18°C° 0 mm 4 m/s 761 mmHg 75%
    04:00 +18°C° 0 mm 4 m/s 761 mmHg 73%
    05:00 +19°C° 0 mm 4 m/s 761 mmHg 71%
    06:00 +19°C° 0 mm 4 m/s 761 mmHg 68%
    07:00 +20°C° 0 mm 4 m/s 761 mmHg 64%
    08:00 +20°C° 0 mm 4 m/s 761 mmHg 60%
    09:00 +21°C° 0 mm 4 m/s 761 mmHg 56%
    10:00 +22°C° 0 mm 5 m/s 761 mmHg 52%
    11:00 +23°C° 0 mm 5 m/s 762 mmHg 47%
    12:00 +23°C° 0 mm 5 m/s 761 mmHg 47%
    13:00 +23°C° 0 mm 5 m/s 761 mmHg 47%
    14:00 +25°C° 0 mm 5 m/s 760 mmHg 47%
    15:00 +23°C° 0 mm 4 m/s 760 mmHg 50%
    16:00 +22°C° 0 mm 4 m/s 760 mmHg 53%
    17:00 +21°C° 0 mm 4 m/s 760 mmHg 57%
    18:00 +20°C° 0 mm 4 m/s 760 mmHg 62%
    19:00 +19°C° 0 mm 4 m/s 760 mmHg 68%
    20:00 +17°C° 0 mm 3 m/s 760 mmHg 74%
    21:00 +17°C° 0 mm 3 m/s 760 mmHg 75%
    22:00 +17°C° 0 mm 2 m/s 760 mmHg 76%
    23:00 +17°C° 0 mm 2 m/s 761 mmHg 77%

    20 Septembre, Vendredi

    Heure Température Précipitation Vent Pression Humidité
    00:00 +18°C° 0 mm 1 m/s 760 mmHg 76%
    01:00 +18°C° 0 mm 1 m/s 760 mmHg 76%
    02:00 +18°C° 0 mm 1 m/s 760 mmHg 75%
    03:00 +17°C° 0 mm 2 m/s 760 mmHg 75%
    04:00 +16°C° 0 mm 3 m/s 760 mmHg 75%
    05:00 +14°C° 0 mm 4 m/s 760 mmHg 75%
    06:00 +15°C° 0 mm 4 m/s 760 mmHg 64%
    07:00 +16°C° 0 mm 5 m/s 760 mmHg 53%
    08:00 +16°C° 0 mm 5 m/s 760 mmHg 42%
    09:00 +17°C° 0 mm 5 m/s 761 mmHg 39%
    10:00 +17°C° 0 mm 6 m/s 761 mmHg 36%
    11:00 +19°C° 0 mm 6 m/s 761 mmHg 33%
    12:00 +20°C° 0 mm 7 m/s 761 mmHg 34%
    13:00 +20°C° 0 mm 7 m/s 761 mmHg 36%
    14:00 +21°C° 0 mm 7 m/s 761 mmHg 38%
    15:00 +21°C° 0 mm 7 m/s 761 mmHg 35%
    16:00 +21°C° 0 mm 7 m/s 761 mmHg 33%
    17:00 +20°C° 0 mm 6 m/s 762 mmHg 30%
    18:00 +19°C° 0 mm 6 m/s 762 mmHg 33%
    19:00 +16°C° 0 mm 6 m/s 763 mmHg 36%
    20:00 +14°C° 0 mm 6 m/s 763 mmHg 39%
    21:00 +13°C° 0 mm 6 m/s 764 mmHg 44%
    22:00 +13°C° 0 mm 6 m/s 764 mmHg 49%
    23:00 +12°C° 0 mm 5 m/s 765 mmHg 54%

    21 Septembre, Samedi

    Heure Température Précipitation Vent Pression Humidité
    00:00 +11°C° 0 mm 6 m/s 765 mmHg 55%
    01:00 +10°C° 0 mm 6 m/s 765 mmHg 55%
    02:00 +9°C° 0 mm 6 m/s 766 mmHg 56%
    03:00 +9°C° 0 mm 6 m/s 766 mmHg 56%
    04:00 +8°C° 0 mm 6 m/s 766 mmHg 57%
    05:00 +8°C° 0 mm 6 m/s 767 mmHg 57%
    06:00 +9°C° 0 mm 6 m/s 767 mmHg 54%
    07:00 +10°C° 0 mm 6 m/s 767 mmHg 50%
    08:00 +11°C° 0 mm 6 m/s 768 mmHg 47%
    09:00 +13°C° 0 mm 6 m/s 768 mmHg 42%
    10:00 +15°C° 0 mm 6 m/s 768 mmHg 37%
    11:00 +17°C° 0 mm 6 m/s 769 mmHg 33%
    12:00 +17°C° 0 mm 6 m/s 768 mmHg 31%
    13:00 +19°C° 0 mm 6 m/s 768 mmHg 30%
    14:00 +19°C° 0 mm 6 m/s 767 mmHg 29%
    15:00 +19°C° 0 mm 6 m/s 767 mmHg 30%
    16:00 +17°C° 0 mm 5 m/s 767 mmHg 32%
    17:00 +17°C° 0 mm 5 m/s 767 mmHg 34%
    18:00 +15°C° 0 mm 5 m/s 768 mmHg 40%
    19:00 +13°C° 0 mm 4 m/s 768 mmHg 47%
    20:00 +11°C° 0 mm 4 m/s 768 mmHg 54%
    21:00 +11°C° 0 mm 4 m/s 769 mmHg 54%
    22:00 +11°C° 0 mm 4 m/s 769 mmHg 54%
    23:00 +10°C° 0 mm 3 m/s 769 mmHg 54%
    Voir plus